LEMUR-2-FURIAUS (42840 NORAD) Tracking and Keplerian Element Data

This shows tracking and keplerian element data for the satellite.

Feedback or suggestion? Click here.




ElementValue
Catalog42840
NameLEMUR-2-FURIAUS
Epoch Orbit41250
Epoch Day35.0172322
Epoch Year2025
RAAN219.5482
Inclination97.3621
Eccentricity0.0011935
Argument of Perigee10.7184
Mean Anonmoly349.4299
Mean Motion15.11996884
Decay Rate0.0001646
L11 42840U 17042R 25035.01723220 .00016460 00000+0 95938-3 0 9997
L22 42840 97.3621 219.5482 0011935 10.7184 349.4299 15.11996884412503



Live tracking and technical data element details for LEMUR-2-FURIAUS (NORAD 42840). LEMUR-2-FURIAUS can be tracked NOW for your location showing map with azimuth and elevation plus other details from your city location.







IsCatalogInMostPopularTable: catalog: 42840, numindb: 426
Update: records affected: 1



GetName: 42840 LEMUR-2-FURIAUS

Hit Count: updated at: Thu, 15 May 2025 10:45:12 GMT